Location: Unspecified
(0.0000°N, 0.0000°E)
Time: 22:14:18
(UTC+00:00)

ISS - Pass Details

Date: 08 January 2026
Orbit: 414 x 424 km, 51.6° (Epoch: 13 January)

Event Time Altitude Azimuth Distance (km) Brightness Sun altitude
Rises 18:57:31 0° 263° (W) 2,337 1.7 -11.8°
Enters shadow 19:05:50 -2° 357° (N) 2,618 0.1 -13.7°
Exits shadow 19:40:16 -68° 70° (ENE) 12,320 3.7 -21.6°
Maximum altitude 05:00:44 26° 54° (NE) 874 -1.8 -15.2°
